Wind_Speed
48 48 47 47 47 47 47 47 47 47 48 48 47 47 46 45 44 44 43 43 43 43 43 43 43 43 43 43 42 41 41 40 39 38 38 38 37 37 35 33 31 30 29
47 47 47 47 47 47 47 47 47 46 46 46 45 45 44 43 42 42 42 42 42 42 41 41 42 42 41 41 40 39 38 37 37 36 36 36 35 33 31 30 28 27 25
46 46 46 46 46 46 45 45 45 45 45 44 43 42 41 40 40 40 40 40 40 40 39 40 40 40 39 39 38 37 36 36 35 35 35 34 33 32 30 29 27 26 25
44 44 44 44 44 44 45 45 44 43 42 41 40 38 38 38 38 38 38 38 38 38 38 38 38 38 37 36 35 35 34 34 34 34 33 32 31 31 30 29 28 27 26
42 42 42 42 42 42 42 41 41 40 39 38 37 36 36 36 36 36 36 36 36 36 36 36 36 36 35 34 34 34 34 34 34 33 32 32 32 31 31 31 30 29 29
39 40 41 40 40 40 39 38 37 36 35 35 34 34 34 34 34 34 34 34 34 34 35 35 34 34 33 33 34 33 33 33 33 33 33 33 33 33 32 32 32 32 32
37 37 37 36 36 36 35 34 33 33 33 32 32 31 31 31 31 31 32 32 33 33 33 33 33 33 32 33 33 33 33 33 33 33 34 34 34 34 34 34 35 35 35
33 33 33 33 32 32 31 31 31 31 30 29 29 29 28 28 29 30 30 30 31 32 32 32 31 31 32 33 33 33 33 34 34 34 35 35 35 36 36 37 37 38 39
30 30 30 30 29 29 29 28 28 28 27 27 27 26 27 27 27 28 28 29 30 31 31 31 31 31 32 33 33 34 34 34 35 35 36 37 37 37 38 39 39 40 41
27 27 27 27 27 27 26 26 26 26 25 25 25 25 25 26 26 27 28 29 30 30 31 31 32 32 33 33 34 34 35 35 36 37 38 38 39 39 40 41 42 44 45
26 26 26 26 26 26 25 25 25 24 24 24 24 25 25 26 27 28 29 30 30 31 31 32 33 33 34 34 35 35 36 37 38 38 39 40 41 41 42 44 45 47 48
25 25 25 25 25 25 25 25 24 24 24 24 25 25 26 27 28 29 30 30 31 32 32 33 34 34 35 35 36 37 37 38 39 40 41 42 43 44 45 47 48 50 51
24 24 25 25 25 25 25 25 25 25 25 25 26 26 27 28 29 30 30 31 32 33 34 34 35 36 36 37 37 38 38 39 40 41 42 43 44 46 48 50 51 51 52
26 25 25 25 26 26 26 26 26 26 26 27 27 28 29 29 30 31 32 32 33 34 35 35 36 37 37 38 38 39 40 41 41 42 43 45 46 48 49 51 52 53 54
27 27 27 27 27 26 27 27 27 27 28 28 29 29 30 31 32 33 33 34 35 35 36 37 37 38 38 39 40 41 41 42 43 44 45 46 48 49 51 52 52 53 53
27 27 28 28 28 28 28 29 29 30 30 31 31 31 32 33 33 34 35 35 36 37 37 38 38 39 40 40 41 42 42 43 44 45 46 48 49 50 52 53 53 53 52
27 28 28 29 29 29 30 30 30 31 31 32 32 33 34 35 35 36 36 37 37 38 38 39 40 40 41 42 42 43 43 44 45 46 48 49 50 52 53 53 53 52 52
28 29 29 30 30 31 31 32 32 32 33 33 33 34 35 35 36 36 37 38 38 39 39 40 41 42 42 43 43 44 45 46 46 47 49 50 51 52 53 52 52 52 51
30 30 30 30 31 31 32 32 33 33 34 35 35 35 36 36 37 37 38 38 39 40 40 41 42 43 43 44 44 45 46 47 47 48 50 51 52 52 52 52 52 51 50
31 31 32 32 32 32 32 33 33 34 35 35 35 36 37 37 37 38 38 39 40 41 42 42 43 43 43 44 45 46 47 48 48 49 50 52 52 52 51 51 51 50 48
32 32 33 33 33 33 33 34 34 34 34 34 35 36 37 37 38 39 39 39 40 41 42 43 43 44 44 45 46 47 47 48 49 49 51 52 51 51 51 50 50 49 48
33 33 34 34 34 34 34 34 34 34 34 35 36 36 37 38 38 39 39 40 40 41 42 42 43 43 44 45 46 46 47 48 49 49 51 51 51 50 50 50 49 49 48
32 33 34 34 35 35 35 35 35 35 36 36 36 37 37 38 38 39 40 40 41 41 42 42 43 44 45 45 45 46 46 47 48 49 50 50 50 50 49 49 49 48 47
32 32 33 33 34 35 35 35 36 36 36 36 37 37 37 38 38 39 40 40 41 42 42 43 43 44 44 45 45 45 46 47 49 50 50 49 49 49 49 49 48 47 46
31 31 32 33 33 34 35 35 35 36 36 36 37 37 38 38 38 39 39 40 41 41 42 42 43 43 43 44 44 45 47 48 49 50 49 48 48 48 48 48 47 46 45
30 30 31 31 32 32 33 33 34 34 34 35 35 35 36 36 37 37 37 38 39 39 40 41 41 42 43 44 45 46 48 49 49 49 48 47 47 48 48 47 46 45 43
Wind_Direction
253 255 257 259 261 263 266 268 271 273 276 278 280 281 283 284 286 287 288 290 291 292 292 293 294 296 297 297 298 299 300 302 304 307 309 312 314 314 312 312 307 301 296
254 255 257 259 262 264 266 268 271 274 276 278 279 281 282 283 285 286 288 289 290 291 292 293 294 296 296 297 298 298 300 302 304 307 310 312 314 316 315 315 313 308 301
255 256 258 260 262 264 266 269 271 274 275 277 279 280 281 283 284 286 288 289 290 291 292 293 294 295 296 296 297 298 300 302 304 307 310 312 313 315 314 314 312 310 305
256 257 259 261 263 265 267 269 271 273 274 276 277 279 281 283 284 286 288 289 290 291 292 293 294 295 295 296 297 298 300 301 303 306 308 310 312 313 313 313 311 308 304
255 257 259 261 263 265 267 269 270 271 272 274 276 278 280 282 284 285 287 289 290 291 292 293 294 294 295 296 297 298 300 301 303 304 306 308 309 310 310 310 309 307 303
256 257 258 260 262 264 266 267 268 269 271 273 275 277 280 282 283 285 287 289 290 291 293 294 294 295 295 296 297 299 300 301 303 304 305 306 307 308 308 307 307 306 303
256 257 258 260 261 263 263 264 266 268 270 271 274 276 279 281 283 286 288 289 291 292 293 294 295 295 296 297 298 299 300 301 302 303 304 305 305 306 306 305 304 303 301
255 255 256 257 259 260 261 263 264 266 268 270 272 275 279 282 285 288 290 291 292 293 294 295 296 297 297 298 299 299 300 301 302 303 304 304 304 304 304 304 303 302 301
253 253 254 255 257 259 260 262 263 265 267 269 272 275 279 283 286 289 292 293 294 295 295 296 297 297 298 299 299 300 301 301 302 303 304 304 304 304 304 304 303 302 301
252 253 254 255 257 258 260 261 262 263 266 269 272 276 279 283 287 290 292 294 295 295 296 296 297 298 298 300 300 301 301 302 303 303 304 304 304 304 304 304 304 303 302
253 255 255 256 257 257 259 260 261 264 267 270 273 277 280 284 287 291 293 295 295 296 297 297 298 298 299 300 301 302 302 303 303 304 304 304 305 305 305 305 305 304 303
254 255 256 256 257 258 259 261 263 265 268 272 275 278 281 285 288 291 294 295 296 297 298 298 299 299 300 301 302 302 303 303 304 304 305 306 306 306 307 307 306 306 304
255 256 257 257 257 259 261 262 264 266 270 274 277 280 283 286 289 291 294 295 296 297 298 299 299 300 301 301 302 303 303 304 304 305 306 306 307 307 308 308 308 307 305
257 258 259 259 260 261 262 263 265 268 272 275 278 281 284 287 289 291 293 295 296 297 298 299 299 300 301 301 302 303 304 304 305 305 306 307 308 308 309 309 309 308 308
259 260 261 261 262 263 264 266 268 270 273 276 279 282 284 287 290 292 293 295 296 297 298 299 300 300 301 302 302 303 304 304 305 305 306 308 309 309 310 311 311 311 310
263 263 264 264 265 266 266 268 270 273 275 277 280 282 285 288 290 291 293 295 296 297 298 299 300 301 301 302 303 304 304 305 305 306 307 308 309 310 311 311 312 312 311
266 266 266 267 267 268 269 270 272 274 277 279 281 284 286 288 289 291 293 294 296 297 298 299 300 301 301 302 303 303 304 305 305 306 308 309 310 311 312 312 313 313 313
266 267 268 269 269 270 271 272 274 276 278 280 282 284 286 288 289 291 292 294 295 296 297 298 299 300 301 302 303 304 304 305 306 307 309 310 311 312 313 313 314 314 313
266 267 269 270 271 271 272 273 274 276 278 280 282 284 286 287 289 291 292 293 295 296 297 298 299 300 300 302 303 304 305 306 307 308 309 310 312 313 313 314 314 314 314
267 268 269 270 271 273 274 275 276 277 279 281 282 284 286 287 288 291 292 293 294 296 297 298 299 300 301 302 304 305 305 306 307 309 310 311 312 312 313 314 315 315 314
267 268 269 271 272 273 274 275 277 278 279 281 282 284 286 287 288 290 292 293 294 296 297 299 300 300 302 303 304 305 306 307 308 309 310 312 312 313 314 314 315 315 315
266 267 269 270 272 272 273 274 276 278 279 280 282 284 286 287 288 290 292 293 294 296 298 299 301 302 303 304 305 306 306 307 309 310 311 312 312 313 313 314 315 315 314
268 268 270 270 271 271 272 273 275 276 278 280 281 284 285 287 288 289 291 293 295 297 298 300 301 303 304 304 305 306 307 309 310 311 312 312 313 313 313 314 314 314 314
270 270 271 271 272 272 273 273 274 275 277 279 281 283 285 286 287 289 291 293 295 297 298 300 302 303 304 305 306 307 308 309 311 312 312 313 312 312 313 313 314 313 313
271 272 272 273 274 274 274 274 275 276 277 278 280 282 284 286 288 290 291 293 296 297 299 300 302 303 304 305 307 308 309 310 311 312 312 312 312 312 313 313 313 312 312
272 273 274 275 275 276 276 276 276 277 278 279 281 282 285 288 289 291 292 295 297 299 301 303 304 305 306 307 308 309 310 311 312 312 312 312 312 312 312 312 312 312 311
Height
5730 5732 5734 5735 5737 5738 5738 5739 5739 5739 5738 5737 5736 5734 5733 5731 5728 5726 5724 5721 5719 5716 5713 5710 5707 5704 5700 5697 5693 5689 5685 5682 5678 5673 5667 5661 5655 5649 5643 5637 5632 5629 5627
5719 5722 5723 5725 5726 5727 5728 5728 5728 5728 5728 5727 5725 5724 5722 5720 5718 5716 5714 5712 5709 5706 5703 5700 5697 5694 5691 5687 5683 5680 5676 5672 5668 5664 5659 5653 5648 5642 5637 5632 5627 5624 5621
5709 5711 5713 5715 5716 5717 5717 5718 5718 5718 5717 5716 5715 5714 5712 5710 5709 5706 5704 5702 5699 5697 5694 5691 5688 5684 5681 5678 5674 5671 5667 5663 5659 5655 5651 5646 5641 5636 5631 5627 5623 5619 5616
5700 5702 5703 5705 5706 5707 5708 5708 5708 5708 5707 5706 5705 5704 5702 5701 5699 5697 5695 5693 5690 5687 5685 5682 5678 5675 5672 5669 5665 5662 5658 5655 5651 5647 5642 5638 5634 5629 5625 5621 5617 5614 5611
5690 5692 5694 5695 5696 5697 5698 5698 5698 5698 5697 5697 5696 5694 5693 5692 5690 5688 5686 5684 5681 5679 5676 5673 5670 5666 5663 5660 5657 5653 5650 5646 5642 5639 5635 5631 5627 5623 5619 5615 5611 5608 5605
5681 5682 5684 5685 5687 5687 5688 5688 5688 5688 5688 5687 5687 5686 5684 5683 5681 5679 5677 5675 5672 5670 5667 5664 5661 5658 5655 5652 5648 5645 5641 5638 5634 5630 5627 5623 5619 5615 5611 5608 5604 5601 5598
5672 5673 5675 5676 5677 5678 5678 5679 5679 5679 5679 5678 5678 5677 5676 5674 5672 5671 5669 5666 5664 5661 5659 5656 5653 5649 5646 5643 5640 5637 5633 5629 5626 5622 5619 5615 5611 5607 5603 5599 5596 5592 5589
5663 5665 5666 5667 5668 5669 5670 5670 5670 5670 5670 5670 5669 5668 5667 5666 5664 5662 5660 5658 5656 5653 5650 5647 5644 5641 5638 5635 5632 5628 5625 5621 5618 5614 5610 5606 5602 5598 5594 5590 5586 5583 5579
5655 5657 5658 5659 5660 5661 5661 5662 5662 5662 5662 5662 5661 5660 5660 5658 5656 5655 5653 5650 5648 5645 5642 5639 5636 5633 5630 5627 5624 5620 5616 5613 5609 5605 5601 5596 5592 5588 5584 5580 5576 5572 5568
5648 5649 5650 5651 5652 5653 5654 5654 5654 5655 5654 5654 5653 5653 5652 5650 5649 5647 5645 5643 5640 5637 5635 5631 5628 5625 5622 5618 5615 5611 5608 5604 5600 5595 5591 5587 5583 5578 5574 5569 5565 5560 5555
5641 5642 5643 5644 5645 5646 5646 5647 5647 5647 5647 5647 5646 5645 5644 5643 5641 5639 5637 5635 5632 5629 5626 5623 5620 5617 5613 5610 5606 5602 5598 5594 5590 5586 5581 5577 5572 5567 5562 5557 5552 5547 5541
5634 5635 5636 5637 5638 5639 5639 5640 5640 5640 5640 5639 5638 5638 5636 5635 5633 5631 5629 5626 5624 5621 5618 5615 5612 5608 5604 5601 5597 5593 5589 5584 5580 5575 5571 5566 5561 5556 5550 5545 5539 5533 5527
5628 5628 5629 5630 5631 5631 5632 5632 5632 5632 5632 5632 5631 5630 5629 5627 5625 5623 5621 5618 5616 5613 5610 5606 5603 5599 5595 5591 5587 5583 5579 5574 5570 5565 5560 5555 5549 5543 5537 5531 5525 5518 5511
5621 5622 5622 5623 5624 5624 5625 5625 5625 5625 5624 5624 5623 5622 5621 5619 5617 5615 5613 5610 5607 5604 5601 5597 5594 5590 5586 5582 5578 5573 5569 5564 5559 5554 5549 5543 5537 5531 5524 5518 5510 5503 5496
5614 5614 5615 5616 5616 5617 5617 5617 5617 5617 5616 5616 5615 5614 5612 5611 5609 5606 5604 5601 5598 5595 5591 5588 5584 5580 5576 5572 5567 5563 5558 5553 5548 5543 5537 5531 5525 5518 5511 5504 5497 5489 5481
5606 5607 5608 5608 5608 5609 5609 5609 5609 5608 5608 5607 5606 5605 5603 5601 5599 5597 5594 5592 5588 5585 5582 5578 5574 5570 5566 5561 5557 5552 5547 5542 5537 5531 5525 5519 5512 5505 5498 5490 5483 5475 5467
5599 5599 5600 5600 5600 5600 5600 5600 5600 5600 5599 5598 5597 5595 5594 5592 5590 5587 5585 5582 5579 5575 5572 5568 5564 5560 5555 5550 5546 5541 5536 5531 5525 5519 5513 5506 5499 5492 5484 5477 5469 5462 5454
5590 5591 5591 5591 5591 5591 5591 5591 5591 5590 5590 5588 5587 5586 5584 5582 5580 5577 5575 5572 5568 5565 5561 5557 5553 5548 5544 5539 5534 5529 5524 5518 5513 5507 5500 5494 5486 5479 5471 5464 5456 5448 5441
5581 5582 5582 5582 5582 5582 5582 5582 5581 5580 5580 5578 5577 5576 5574 5572 5569 5567 5564 5561 5558 5554 5550 5546 5542 5537 5532 5527 5522 5517 5512 5506 5500 5494 5487 5480 5473 5466 5458 5451 5443 5435 5428
5572 5572 5572 5572 5572 5572 5572 5571 5571 5570 5569 5568 5567 5565 5563 5561 5559 5556 5553 5550 5547 5543 5539 5534 5530 5525 5521 5516 5511 5505 5499 5494 5488 5481 5474 5467 5460 5453 5446 5438 5430 5423 5416
5562 5562 5562 5562 5562 5562 5562 5561 5560 5560 5559 5557 5556 5554 5552 5550 5548 5545 5542 5539 5535 5531 5527 5523 5518 5514 5509 5504 5499 5493 5487 5481 5475 5469 5462 5454 5447 5440 5433 5426 5418 5411 5404
5552 5552 5552 5552 5551 5551 5551 5551 5550 5549 5548 5547 5545 5543 5541 5539 5536 5534 5531 5527 5524 5520 5516 5511 5506 5502 5497 5492 5487 5481 5475 5469 5463 5456 5449 5442 5434 5427 5420 5413 5406 5399 5392
5541 5541 5541 5541 5541 5540 5540 5540 5539 5538 5537 5536 5534 5532 5530 5528 5525 5522 5519 5516 5512 5508 5504 5500 5495 5490 5485 5480 5475 5469 5463 5457 5451 5444 5437 5429 5422 5415 5408 5401 5394 5387 5380
5531 5531 5530 5530 5530 5529 5529 5529 5528 5527 5526 5524 5523 5521 5519 5516 5514 5511 5508 5504 5501 5497 5493 5488 5484 5478 5473 5468 5463 5457 5451 5445 5439 5432 5425 5417 5410 5403 5396 5389 5382 5375 5368
5521 5520 5520 5520 5519 5519 5518 5517 5516 5515 5514 5513 5511 5510 5508 5505 5503 5500 5497 5493 5489 5485 5481 5477 5472 5467 5462 5457 5451 5445 5439 5433 5426 5420 5413 5406 5399 5391 5384 5377 5371 5364 5357
5511 5511 5510 5510 5509 5508 5507 5507 5505 5504 5503 5502 5500 5499 5497 5494 5492 5489 5486 5482 5478 5474 5470 5466 5461 5456 5451 5445 5439 5434 5427 5421 5414 5407 5400 5394 5387 5380 5372 5366 5359 5352 5346